OpenBCM V1.13 (Linux)

Packet Radio Mailbox

DB0FHN

[JN59NK Nuernberg]

 Login: GUEST





  
UA9FBV > KEPS     08.03.03 10:38l 108 Lines 2841 Bytes #999 (0) @ AMSAT
BID : ORB03065.M
Read: DB0FHN GUEST
Subj: Orbital Elements  03065.MISC
Path: DB0FHN<DB0RGB<OK0PPL<RZ6HXA<UA9FBV
Sent: 030307/0453Z @:UA9FBV.PRM.RUS.AS #:30647 [Perm] FBB7.00i $:ORB03065.M
From: UA9FBV@UA9FBV.PRM.RUS.AS
To  : KEPS@AMSAT

HR AMSAT ORBITAL ELEMENTS FOR MANNED AND MISCELLANEOUS SATELLITES
FROM WA5QGD FORT WORTH,TX March 6, 2003
SEND SUBSCRIBE/UNSUBSCRIBE TO majordomo@amsat.org ONLY
BID: ORB03065.M
TO ALL RADIO AMATEURS BT

Satellite: HUBBLE
Catalog number: 20580
Epoch time:      03065.02570403
Element set:     348
Inclination:       28.4687 deg
RA of node:       297.6559 deg
Eccentricity:    0.0004020
Arg of perigee:    78.0095 deg
Mean anomaly:      66.8594 deg
Mean motion:   14.97887844 rev/day
Decay rate:      3.434e-05 rev/day^2
Epoch rev:           50495
Checksum:              321

Satellite: UARS
Catalog number: 21701
Epoch time:      03065.65996109
Element set:     840
Inclination:       56.9829 deg
RA of node:       326.9217 deg
Eccentricity:    0.0004017
Arg of perigee:   107.5627 deg
Mean anomaly:     252.5884 deg
Mean motion:   15.02893119 rev/day
Decay rate:      1.157e-05 rev/day^2
Epoch rev:           62813
Checksum:              306

Satellite: PO-34
Catalog number: 25520
Epoch time:      03065.51255108
Element set:     645
Inclination:       28.4585 deg
RA of node:       117.6462 deg
Eccentricity:    0.0006003
Arg of perigee:   163.6528 deg
Mean anomaly:     196.4292 deg
Mean motion:   15.13960137 rev/day
Decay rate:      3.242e-05 rev/day^2
Epoch rev:           24000
Checksum:              271

Satellite: ISS
Catalog number: 25544
Epoch time:      03065.74843361
Element set:     755
Inclination:       51.6365 deg
RA of node:       174.7501 deg
Eccentricity:    0.0011650
Arg of perigee:   284.8455 deg
Mean anomaly:     210.9936 deg
Mean motion:   15.59272060 rev/day
Decay rate:     3.5672e-04 rev/day^2
Epoch rev:           24502
Checksum:              297

Satellite: WO-39
Catalog number: 26061
Epoch time:      03064.88824804
Element set:     780
Inclination:      100.2026 deg
RA of node:       124.7955 deg
Eccentricity:    0.0034835
Arg of perigee:   235.6858 deg
Mean anomaly:     124.1025 deg
Mean motion:   14.37840182 rev/day
Decay rate:       4.42e-06 rev/day^2
Epoch rev:           16273
Checksum:              293

Satellite: OO-38
Catalog number: 26063
Epoch time:      03065.72585034
Element set:     735
Inclination:      100.2064 deg
RA of node:       123.2313 deg
Eccentricity:    0.0036684
Arg of perigee:   241.3879 deg
Mean anomaly:     118.3608 deg
Mean motion:   14.35487186 rev/day
Decay rate:       1.37e-06 rev/day^2
Epoch rev:           16270
Checksum:              291

Satellite: NO-45
Catalog number: 26932
Epoch time:      03065.45763194
Element set:     412
Inclination:       67.0528 deg
RA of node:       214.4082 deg
Eccentricity:    0.0004383
Arg of perigee:   245.9468 deg
Mean anomaly:     114.1169 deg
Mean motion:   14.29299781 rev/day
Decay rate:       1.19e-06 rev/day^2
Epoch rev:            7464
Checksum:              313



Read previous mail | Read next mail


 26.06.2026 00:22:22lGo back Go up